Location: Molino
(34.1256°N, 117.1956°W)
Time: 03:47:21
(UTC+00:00)

Daily predictions for brighter satellites

Satellite Brightness Start Highest point End
(mag) Time Altitude Azimuth Time Altitude Azimuth Time Altitude Azimuth
SEDSat Delta rocket 4.1 03:09:29 10° W 03:16:14 72° S 03:22:53 10° E
Cosmos 1844 3.7 03:14:05 10° SSW 03:19:42 87° ESE 03:25:26 10° NNE
STARLINK-1164 3.9 03:16:09 10° NW 03:20:15 64° SW 03:24:20 10° SSE
ASTEX 1 4.1 03:17:09 10° SE 03:21:33 35° ENE 03:26:00 10° NNE
STARLINK-1219 4.1 03:19:14 10° SW 03:23:20 66° NW 03:27:28 10° NE
FREGAT/IRIS 2.5 03:20:59 10° SSE 03:23:33 49° ENE 03:26:09 10° N
Cosmos 1743 4.3 03:21:28 10° NNE 03:24:13 19° ENE 03:26:57 10° ESE
Cosmos 2056 Rocket 4.3 03:20:27 10° SSE 03:24:49 29° E 03:29:12 10° NE
STARLINK-1182 4.1 03:21:10 10° NW 03:25:13 57° SW 03:29:15 10° SSE
DMSP B5D2-2 4.5 03:20:12 10° NNE 03:25:14 43° E 03:30:12 10° S
GPS 2-04 Rocket1 3.6 03:23:21 10° SSW 03:26:14 24° SSE 03:29:14 10° E
Cosmos 1464 Rocket 4.2 03:21:26 10° N 03:27:43 60° E 03:33:59 10° SSE
STARLINK-1211 4.3 03:24:15 10° WSW 03:28:20 59° NW 03:32:25 10° NE
Cosmos 2242 Rocket 3.7 03:24:44 10° S 03:29:00 52° E 03:33:16 10° NNE
STARLINK-1163 4.3 03:26:09 10° NW 03:30:10 50° SW 03:34:09 10° SSE
STARLINK-1172 4.5 03:31:10 10° WNW 03:35:07 44° SW 03:39:03 10° SSE
MOS 1 Rocket 3.0 03:33:35 10° NNE 03:37:58 69° E 03:42:12 10° S
STARLINK-1143 4.4 03:37:09 10° S 03:40:45 29° SE 03:44:21 10° ENE
ERBS 2.5 03:37:55 10° SSW 03:41:03 42° SE 03:44:11 10° NE
STARLINK-1203 4.2 03:41:27 10° SSW 03:45:14 34° SE 03:49:02 10° ENE
STARLINK-1241 4.2 03:42:00 10° SSW 03:45:43 33° SE 03:49:26 10° ENE
STARLINK-1158 4.4 03:43:28 10° NNW 03:47:24 41° NE 03:50:34 15° ESE
Okean 1-7 3.2 03:43:58 10° SSE 03:48:05 48° E 03:52:11 10° NNE
DNEPR-1 R/B 4.1 03:43:19 10° NNW 03:49:14 83° WSW 03:53:41 12° SSE
MetOp-A 4.3 03:44:15 10° SSE 03:49:30 60° ENE 03:54:46 10° N
Cosmos 2346 Rocket 4.4 03:44:12 10° S 03:50:14 79° E 03:56:23 10° N
STARLINK-1239 4.1 03:46:50 10° SSW 03:50:39 37° SE 03:54:29 10° ENE
STARLINK-1162 4.2 03:48:25 10° NNW 03:52:25 45° NE 03:55:21 17° ESE
Cosmos 1733 Rocket 4.0 03:48:48 10° NNW 03:52:59 47° W 03:57:08 10° SSW
STARLINK-1240 3.9 03:51:43 10° SSW 03:55:37 42° SE 03:59:32 10° ENE
Cosmos 1666 4.1 03:53:42 10° NNW 03:57:18 38° W 04:00:51 10° SSW
CZ-2C R/B 3.8 03:55:35 10° N 04:00:03 78° WNW 04:04:35 10° SSW
SL-08 RB Rocket 4.1 03:55:46 10° S 04:00:21 67° W 04:04:56 10° NNW
STARLINK-1216 3.8 03:56:36 10° SSW 04:00:34 47° SE 04:04:33 10° ENE
Tsikada Rocket 3.9 03:54:26 10° S 04:00:37 71° E 04:06:45 10° N
ASTRO E2 4.4 03:58:24 10° SSW 04:00:26 15° SSE 04:00:26 15° SSE
USA 186 3.5 03:59:25 10° SSW 04:01:19 21° W 04:03:18 10° NW
Cosmos 407 Rocket 4.1 03:56:44 10° N 04:01:48 42° ENE 04:05:10 19° SE
STARLINK-1159 3.9 03:58:17 10° NW 04:02:22 56° NE 04:04:54 21° ESE
ARGOS 4.0 03:57:30 10° S 04:02:40 50° W 04:07:53 10° NNW
Cosmos 1975 3.8 03:59:20 10° NNE 04:02:55 29° E 04:04:34 22° ESE
Meteor 1-4 Rocket 2.9 04:01:35 20° SSE 04:03:32 38° E 04:06:46 10° NNE
Okean 1 3.3 03:59:44 10° S 04:03:46 85° W 04:07:50 10° N
Cosmos 1833 Rocket 4.4 04:00:39 10° NNE 04:04:23 18° ENE 04:07:16 13° E
STARLINK-1237 3.7 04:01:30 10° SSW 04:05:31 53° SE 04:09:34 10° NE
STARLINK-1087 3.2 04:04:16 10° NNW 04:05:57 25° NE 04:06:03 25° NE
CZ-2C R/B 2.9 04:01:08 10° N 04:06:46 79° WNW 04:12:22 10° SSW
STARLINK-1171 3.8 04:03:17 10° NW 04:07:23 62° NE 04:09:43 24° ESE
Cosmos 1515 3.7 04:05:59 14° S 04:09:10 60° E 04:12:56 10° NNE
Aureole 1 Rocket 4.1 04:05:50 10° N 04:10:09 39° ENE 04:13:14 22° SE
STARLINK-1202 3.6 04:06:26 10° SSW 04:10:30 60° SE 04:14:35 10° NE
STARLINK-1155 3.7 04:08:13 10° NW 04:12:20 70° NE 04:14:28 27° ESE
Meteor 2-9 Rocket 4.4 04:12:07 10° N 04:17:17 47° E 04:20:03 25° SE
STARLINK-1166 3.6 04:13:10 10° NW 04:17:19 78° NE 04:19:15 30° SE
SPOT 3 Rocket 3.6 04:13:10 14° S 04:17:39 81° WSW 04:22:48 10° NNW
Resurs 01 Rocket 1.7 04:16:24 24° SSE 04:18:58 63° ENE 04:23:23 10° N
STARLINK-1246 3.5 04:16:19 10° SW 04:20:25 76° SE 04:24:33 10° NE
CREW DRAGON DEMO-1 DEB 3.9 04:18:35 10° NNW 04:21:27 34° NE 04:22:16 29° ENE
STARLINK-1165 3.5 04:18:08 10° NW 04:22:17 87° NE 04:24:02 34° SE
Cosmos 1624 Rocket 4.4 04:18:17 10° SSW 04:23:34 67° WNW 04:28:52 10° N
Cosmos 1782 Rocket 3.5 04:20:44 10° N 04:25:12 70° E 04:27:27 29° SSE
STARLINK-1224 3.5 04:21:16 10° SW 04:25:24 85° SE 04:29:32 10° NE
Cosmos 1703 Rocket 4.5 04:21:14 10° SSW 04:25:25 48° W 04:29:36 10° N
Cosmos 1190 Rocket 4.1 04:20:59 10° N 04:26:08 58° ENE 04:28:36 30° SE
Cosmos 44 Rocket 3.9 04:21:29 10° NW 04:26:16 54° WSW 04:29:25 21° S
Cosmos 614 Rocket 3.9 04:21:45 10° NNW 04:26:51 85° WSW 04:29:56 24° SSE
STARLINK-1169 3.5 04:23:07 10° NW 04:27:16 84° SW 04:28:49 37° SE
Sich 1 Rocket 4.0 04:22:52 10° N 04:27:17 46° E 04:28:50 33° SE
Cosmos 2278 Rocket 2.1 04:22:34 10° SSW 04:28:13 83° ESE 04:33:55 10° NNE
H-2A R/B 4.3 04:25:29 10° SW 04:29:02 20° W 04:32:40 10° NW
Cosmos 1140 Rocket 3.7 04:24:09 10° N 04:29:16 55° ENE 04:31:31 31° SE
STARLINK-1225 3.6 04:26:13 10° SW 04:30:21 86° NW 04:34:31 10° NE
STARLINK-1178 3.6 04:28:06 10° NW 04:32:15 75° SW 04:33:36 41° SSE
Cosmos 1544 2.9 04:31:18 10° N 04:34:55 73° E 04:35:42 51° SSE
STARLINK-1230 3.7 04:31:13 10° SW 04:35:20 77° NW 04:39:29 10° NE
STARLINK-1120 3.7 04:33:06 10° NW 04:37:12 67° SW 04:38:23 43° SSE
SAR-Lupe-2 3.6 04:34:07 10° NNE 04:37:40 57° ESE 04:38:00 54° SE
STARLINK-1243 3.9 04:36:12 10° SW 04:40:19 69° NW 04:44:27 10° NE
Okean 2 Rocket 3.7 04:36:27 10° NNE 04:40:33 37° E 04:41:03 36° E
Terra 3.8 04:40:27 14° ENE 04:40:58 14° ENE 04:43:24 10° NE
ERS-1 Rocket 4.2 04:40:13 23° E 04:41:11 25° ENE 04:45:14 10° NNE
STARLINK-1131 3.8 04:38:05 10° NW 04:42:10 59° SW 04:43:09 44° S
Hubble Space Telescope 1.6 04:38:28 10° WSW 04:42:03 33° SSW 04:42:03 33° SSW
STARLINK-1236 4.1 04:41:13 10° SW 04:45:19 62° NW 04:49:26 10° NE
Cosmos 1356 4.1 04:42:19 10° NNW 04:45:39 49° W 04:46:39 36° SW
STARLINK-1190 4.0 04:43:05 10° NW 04:47:07 52° SW 04:47:56 44° S
EXPRESS MD2 3.0 04:48:40 10° WSW 04:51:17 72° NW 04:55:53 10° NE
STARLINK-1129 4.1 04:48:07 10° WNW 04:52:06 46° SW 04:52:44 42° SSW
Cosmos 1954 Rocket 4.2 04:46:58 10° N 04:52:10 57° ENE 04:53:31 44° ESE
Spot 2 Rocket 3.4 04:51:29 44° SE 04:52:58 68° ENE 04:57:59 10° N
Cosmos 371 Rocket 3.1 04:51:30 35° S 04:53:29 76° ESE 04:58:21 10° NNE
Cosmos 2151 Rocket 4.3 04:49:58 10° NNE 04:54:10 36° E 04:54:12 36° E
Lacrosse 5 3.8 04:51:09 10° N 04:54:48 19° NE 04:57:00 15° ENE
STARLINK-1269 4.5 04:51:14 10° WSW 04:55:16 50° NW 04:59:18 10° NE
ATLAS 3B CENTAUR R/B 3.3 04:43:54 10° WSW 04:56:15 42° S 04:58:08 36° SE
STARLINK-1134 4.3 04:53:09 10° WNW 04:57:03 41° SW 04:57:31 40° SSW
Cosmos 909 Rocket 4.2 04:51:23 10° NNW 04:58:45 79° WSW 05:01:32 37° SSE
IGS 5A 3.4 05:00:08 65° E 05:00:21 66° ENE 05:04:29 10° N
SEDSat Delta rocket 4.2 04:56:11 10° W 05:02:46 54° SSW 05:04:21 44° SSE
STARLINK-1077 4.4 05:00:28 10° NNW 05:04:22 39° NE 05:04:45 38° NE
MetOp-B 4.2 05:02:33 39° S 05:04:33 74° WSW 05:09:55 10° NNW
GPS 2-04 Rocket1 3.2 05:01:49 10° WSW 05:04:23 44° WSW 05:04:23 44° WSW
Okean 3 4.2 05:04:37 30° SW 05:06:27 52° W 05:10:40 10° N
Cosmos 676 Rocket 3.9 05:01:21 10° NNW 05:06:38 83° ENE 05:07:45 56° SSE
CARTOSAT-1 4.3 05:07:08 38° ENE 05:07:08 38° ENE 05:10:52 10° N
STARLINK-1075 4.3 05:05:24 10° NNW 05:09:22 43° NE 05:09:32 43° NE
Meteor 2-4 Rocket 4.3 05:05:25 15° SSW 05:09:41 51° W 05:14:54 10° N
COSMOS 2406 3.3 05:07:05 10° NNW 05:12:49 72° WSW 05:14:26 47° S
Cosmos 2279 Rocket 3.9 05:07:40 10° N 05:13:56 79° E 05:15:40 50° SSE
Intercosmos 24 4.0 05:10:43 10° N 05:13:41 60° N 05:13:41 60° N
STARLINK-1093 4.2 05:10:21 10° NW 05:14:19 48° NE 05:14:19 48° NE
Meteor 1-23 Rocket 4.3 05:14:39 53° ESE 05:15:10 55° E 05:20:42 10° NNE
Cosmos 1461 4.0 05:17:13 33° NE 05:17:13 33° NE 05:19:42 10° NE
Meteor 1-12 Rocket 4.1 05:11:03 10° N 05:16:43 89° E 05:18:02 56° S
Meteor 1-13 Rocket 4.4 05:16:08 34° SSW 05:18:36 71° W 05:24:14 10° N
STARLINK-1074 4.1 05:15:17 10° NW 05:19:06 52° NNE 05:19:06 52° NNE
SPOT 5 3.0 05:26:08 61° E 05:26:17 62° ENE 05:31:28 10° N
Cosmos 2297 3.5 05:26:40 68° SE 05:27:02 71° ESE 05:32:43 10° NNE
STARLINK-1088 4.2 05:25:12 10° NW 05:28:40 56° N 05:28:40 56° N
Cosmos 1300 Rocket 3.9 05:27:21 10° NNW 05:31:43 60° W 05:31:43 60° W
Landsat 7 4.3 05:33:01 49° WSW 05:33:30 51° W 05:38:08 10° NNW
STARLINK-1115 4.3 05:30:09 10° NW 05:33:26 53° NNW 05:33:26 53° NNW
Cosmos 304 Rocket 3.8 05:36:56 75° N 05:36:56 75° N 05:41:19 10° NNE
STARLINK-1076 4.4 05:35:07 10° NW 05:38:13 49° NW 05:38:13 49° NW
Cosmos 1092 Rocket 4.3 05:40:11 48° E 05:40:11 48° E 05:45:47 10° NNE
Cosmos 1674 Rocket 4.1 05:42:11 54° WNW 05:42:11 54° WNW 05:46:13 10° N
Cosmos 2082 Rocket 2.1 05:39:29 10° NNW 05:45:13 78° ENE 05:45:18 78° E
ISS -0.9 05:45:01 10° NNW 05:46:23 15° N 05:46:23 15° N
Cosmos 1378 Rocket 4.2 05:48:32 55° NW 05:48:32 55° NW 05:52:12 10° N
Cosmos 1833 Rocket 2.9 05:43:10 10° NNW 05:48:39 56° WSW 05:48:58 55° WSW
Cosmos 1437 Rocket 4.4 05:49:58 30° WNW 05:49:58 30° WNW 05:52:49 10° NNW
Cosmos 2369 Rocket 3.7 05:54:58 23° ENE 05:54:58 23° ENE 05:57:34 10° NE
Cosmos 1943 Rocket 3.1 05:56:16 35° NE 05:56:16 35° NE 05:59:45 10° NNE
Terra 2.8 06:19:20 42° WNW 06:19:20 42° WNW 06:22:52 10° NNW
ERS-1 Rocket 4.4 06:20:12 30° W 06:20:12 30° W 06:24:13 10° NW
SeaSat 1 3.1 06:16:30 10° NNE 06:20:17 51° N 06:20:17 51° N
Cosmos 2026 Rocket 4.0 06:30:50 76° NNW 06:30:50 76° NNW 06:36:40 10° N
Lacrosse 5 3.1 06:33:09 10° NW 06:36:11 36° NW 06:36:11 36° NW
CENTAUR R/B 4.5 06:37:18 10° NNW 06:44:23 31° NE 06:48:18 22° E
ATLAS 2AS CENTAUR R/B 3.0 07:04:53 76° ENE 07:04:53 76° ENE 07:12:26 10° NNE
COSMOS 2455 4.2 07:11:20 30° NE 07:11:20 30° NE 07:14:29 10° NE
NOSS 3-2 (A) 4.1 07:09:50 10° NNW 07:17:42 73° ENE 07:18:12 71° E
ATLAS CENTAUR R/B 4.3 07:26:09 13° NE 07:26:09 13° NE 07:26:37 10° NE
USA 238 DEB 3.9 07:19:01 10° NNW 07:25:54 77° NNE 07:25:54 77° NNE
USA 238 3.9 07:19:08 10° NNW 07:26:02 77° NNE 07:26:02 77° NNE
Cosmos 2369 Rocket 3.7 07:36:43 29° WNW 07:36:43 29° WNW 07:41:24 10° N
Cosmos 1943 Rocket 4.2 07:37:44 19° WNW 07:38:24 19° WNW 07:42:22 10° NNW
FALCON 9 R/B 3.6 07:52:05 44° E 07:52:05 44° E 08:01:20 10° E
USA 215 3.5 07:59:55 64° NW 07:59:55 64° NW 08:05:20 10° NW
NOSS 3-2 (C) 4.1 08:16:20 10° NW 08:23:34 67° W 08:23:34 67° W
ATLAS 3B R/B 3.1 08:27:05 10° NNW 08:33:52 59° ENE 08:34:40 56° E
CENTAUR R/B 3.2 08:27:22 10° NW 08:35:25 68° WSW 08:35:25 68° WSW
Cosmos 2297 Rocket 4.2 08:46:13 10° N 08:50:38 23° ENE 08:53:28 16° E
SJ 16-02 3.9 08:51:22 10° NNE 08:54:03 16° ENE 08:54:43 15° ENE
COSMOS 2455 4.4 08:54:27 24° WNW 08:54:53 24° NW 08:59:43 10° N
SL-16 R/B 3.5 08:58:47 35° ESE 09:00:20 40° ENE 09:06:01 10° N
Cosmos 1745 Rocket 4.0 09:01:58 74° N 09:01:58 74° N 09:07:29 10° N
ATLAS CENTAUR R/B 4.2 09:02:18 13° NW 09:02:18 13° NW 09:03:35 10° NNW
Timation 2 Rocket 4.0 08:56:08 10° NNW 09:01:51 72° NNE 09:01:51 72° NNE
ADEOS II 4.1 09:01:18 10° NE 09:04:41 17° E 09:05:07 17° E
SL-08 ROCKET BODY 4.5 09:10:22 67° NNW 09:10:22 67° NNW 09:15:29 10° N
CZ-2D R/B 2.6 09:09:29 10° NNE 09:13:54 55° ENE 09:13:54 55° ENE
Resurs 1-4 Rocket 2.5 09:11:17 10° NNE 09:15:51 60° ENE 09:15:51 60° ENE
Cosmos 1697 Rocket 3.3 09:20:30 46° E 09:20:30 46° E 09:25:38 10° NE
GEOS 3 Rocket 3.8 09:23:49 68° N 09:23:49 68° N 09:28:31 10° NNW
BREEZE-M (TANK) 4.4 09:24:19 61° S 09:25:42 74° SE 09:52:46 10° NE
Cosmos 2227 Rocket 3.3 09:21:35 10° N 09:26:53 39° ENE 09:29:33 25° ESE
CZ-4B R/B 3.7 09:28:17 10° NNE 09:33:11 69° ENE 09:33:11 69° ENE
Cosmos 1656 3.8 09:35:31 65° NW 09:35:31 65° NW 09:40:50 10° NNE
Meteor 2-1 Rocket 4.1 09:30:37 10° N 09:35:52 81° N 09:35:52 81° N
NPP 3.6 09:32:16 10° NNE 09:37:27 83° N 09:37:27 83° N
Cosmos 1825 Rocket 4.3 09:40:37 49° NE 09:40:37 49° NE 09:43:56 10° NNE
Meteor 2-10 Rocket 3.6 09:37:10 10° N 09:42:23 70° E 09:42:24 70° E
ATLAS CENTAUR R/B 4.0 09:39:48 10° NNW 09:43:10 34° NE 09:50:34 10° ESE
IRS P6 4.5 09:41:13 10° NNE 09:46:32 86° ESE 09:46:34 86° ESE
Cosmos 841 Rocket 3.8 09:47:35 55° ESE 09:47:49 55° ESE 09:52:56 10° NNE
Cosmos-2242 3.8 09:45:00 10° N 09:48:53 47° ENE 09:48:53 47° ENE
Cosmos 1709 Rocket 3.9 09:50:53 63° W 09:51:11 64° W 09:57:16 10° N
CBERS-1 4.0 09:49:24 10° NNE 09:54:31 74° ESE 09:54:48 72° SE
CZ-4C R/B 2.0 09:56:14 66° NW 09:56:14 66° NW 10:01:41 10° NNE
Alouette 2 Rocket 3.7 09:55:07 10° N 09:59:59 75° NNE 09:59:59 75° NNE
Cosmos 2369 3.5 10:00:00 73° SW 10:00:30 81° WNW 10:06:10 10° NNE
Cosmos 1763 Rocket 3.8 10:04:32 49° WNW 10:04:32 49° WNW 10:09:22 10° N
Lacrosse 4 Rocket 4.0 10:01:15 10° N 10:04:28 20° ENE 10:07:38 10° ESE
Cosmos 2360 4.1 10:05:06 65° S 10:05:58 84° ESE 10:11:40 10° NNE
Cosmos 1455 3.6 10:03:15 10° NNW 10:05:18 30° NNW 10:05:18 30° NNW
GP-B 3.2 10:02:34 10° N 10:06:31 65° NW 10:06:31 65° NW
IRS-1D 3.4 10:05:36 10° N 10:10:55 77° WNW 10:11:34 67° SW
Cosmos 1980 Rocket 2.2 10:12:20 53° S 10:13:35 72° ESE 10:19:11 10° NNE
IRS-1C 4.2 10:08:58 10° NNE 10:14:18 71° ESE 10:15:42 49° SSE
USA 234 4.4 10:10:39 10° ENE 10:16:21 32° SE 10:19:02 24° SSE
H-2A R/B 4.5 10:16:24 10° ESE 10:19:39 21° ENE 10:22:59 10° NNE
Cosmos 2219 3.6 10:17:47 10° NW 10:22:42 42° W 10:22:42 42° W
ATLAS 3B R/B 4.1 10:18:51 10° WNW 10:21:51 20° W 10:21:51 20° W
Cosmos 489 Rocket 4.4 10:24:20 41° S 10:26:39 82° ESE 10:32:54 10° NNE
STARLINK-33 4.2 10:29:06 36° E 10:29:06 36° E 10:31:27 10° ENE
STARLINK-1238 4.4 10:28:09 10° NW 10:32:12 51° NE 10:36:13 10° ESE
SJ 16-02 2.3 10:28:39 10° NNW 10:31:40 32° WNW 10:31:40 32° WNW
Cosmos 2074 Rocket 3.9 10:31:05 38° SSW 10:33:39 78° W 10:39:58 10° N
Cosmos 2297 Rocket 2.5 10:29:31 10° NW 10:34:48 43° WSW 10:35:11 42° WSW
SL-19 R/B 4.5 10:30:19 10° NNE 10:35:02 85° WNW 10:35:51 59° SSW
STARLINK-1274 4.5 10:35:39 29° ESE 10:35:39 29° ESE 10:38:22 10° ENE
Cosmos 1953 Rocket 4.2 10:35:45 39° W 10:35:45 39° W 10:39:55 10° N
STARLINK-1289 4.5 10:36:13 28° ESE 10:36:13 28° ESE 10:38:51 10° ENE
ARIANE 5 R/B 2.4 10:31:32 10° NNE 10:36:36 85° ESE 10:38:25 40° S
STARLINK-66 3.5 10:37:25 53° E 10:37:25 53° E 10:40:09 10° NE
STARLINK-1201 4.2 10:33:06 10° NW 10:37:11 57° NE 10:41:16 10° ESE
STARLINK-1303 4.4 10:38:13 30° ESE 10:38:13 30° ESE 10:40:57 10° ENE
STARLINK-80 4.0 10:39:14 42° SE 10:39:33 43° SE 10:43:10 10° ENE
Cosmos 2082 3.6 10:35:05 10° NNW 10:40:45 83° WSW 10:45:58 12° SSE
STARLINK-1312 4.2 10:41:03 34° SE 10:41:03 34° SE 10:44:06 10° ENE
Cosmos 2278 4.0 10:39:26 39° WSW 10:41:06 52° WNW 10:46:38 10° N
STARLINK-1206 4.0 10:38:03 10° NW 10:42:10 63° NE 10:46:16 10° SE
Cosmos 1898 Rocket 3.8 10:37:21 10° NNW 10:42:24 44° WSW 10:43:14 41° SW
SL-16 R/B 3.5 10:43:53 26° W 10:43:58 26° W 10:49:02 10° NW
Cosmos 1400 Rocket 2.7 10:40:12 10° N 10:44:21 87° W 10:45:43 41° S
STARLINK-43 4.2 10:44:04 36° WNW 10:44:31 38° NW 10:47:58 10° NNE
ADEOS II 2.5 10:39:32 10° N 10:44:34 47° WNW 10:46:04 37° WSW
Cosmos 2322 Rocket 3.8 10:41:16 10° SSE 10:45:56 28° ESE 10:50:40 10° NE
BREEZE M DEB (TANK) 4.3 10:43:28 10° NW 10:46:34 53° NE 10:55:51 10° ESE
STARLINK-1205 3.8 10:43:01 10° NW 10:47:09 71° NE 10:51:16 10° SE
Spot 4 Rocket 4.1 10:42:19 10° NNE 10:47:28 77° ESE 10:50:14 28° S
Cosmos 2184 Rocket 4.0 10:45:13 34° SSW 10:47:52 61° W 10:53:59 10° N
STARLINK-1283 3.6 10:47:25 51° S 10:47:59 58° SE 10:51:41 10° NE
STARLINK-75 2.9 10:48:05 69° SE 10:48:06 69° SE 10:51:19 10° NE
Cosmos 1937 Rocket 3.6 10:43:47 10° NNW 10:48:55 56° WSW 10:51:16 31° SSW
Cosmos 1842 Rocket 4.1 10:45:45 10° N 10:50:11 60° E 10:54:08 13° SSE
STARLINK-1218 3.6 10:47:58 10° NW 10:52:07 79° NE 10:56:15 10° SE
CZ-2D R/B 4.0 10:51:36 10° NW 10:54:08 14° WNW 10:55:13 13° WNW
Resurs 1-4 Rocket 4.1 10:53:22 10° NW 10:55:45 13° WNW 10:56:56 12° WNW
STARLINK-58 4.1 10:55:42 31° SSE 10:56:08 32° SE 10:59:01 10° ENE
STARLINK-1254 3.5 10:52:56 10° NW 10:57:06 88° NE 11:01:14 10° SE
STARLINK-22 3.0 10:57:28 57° S 10:57:51 65° SE 11:01:01 10° NE
CZ-2C R/B 3.1 10:55:31 10° NNE 10:59:11 59° E 11:01:13 24° S
Cosmos 1076 Rocket 4.0 10:58:07 18° SSE 11:01:15 58° E 11:05:32 10° NNE
SL-08 R/B 3.3 10:59:10 26° S 11:01:40 58° W 11:06:16 10° NNW
STARLINK-1231 3.5 10:57:55 10° NW 11:02:04 83° SW 11:06:11 10° SE
IRIDIUM 104 4.2 11:00:26 20° S 11:04:07 85° W 11:09:22 10° N
Cosmos 1697 Rocket 4.2 11:02:14 17° W 11:04:24 21° WNW 11:08:39 10° N
Cosmos 1610 Rocket 4.4 11:00:40 24° SSW 11:04:31 68° W 11:10:39 10° N
Shenzhou-11 Module 3.7 11:05:37 16° SE 11:05:37 16° SE 11:07:06 10° E
IDEFIX/ARIANE 42P 2.6 11:00:36 10° NNE 11:05:53 81° ESE 11:09:57 17° S
ERS-2 2.0 11:04:27 25° S 11:06:30 74° WSW 11:10:10 10° NNW
STARLINK-1232 3.5 11:02:55 10° NW 11:07:03 74° SW 11:11:10 10° SE
Cosmos 1315 Rocket 3.4 11:03:32 10° N 11:07:23 55° E 11:11:14 10° SSE
CZ-2D R/B 3.6 11:04:47 10° N 11:08:54 59° WNW 11:10:54 29° SW
CZ-4C R/B 3.4 11:05:32 10° SSE 11:09:04 64° ENE 11:12:40 10° N
Cosmos 2227 Rocket 3.3 11:06:13 10° NW 11:10:37 24° W 11:11:17 23° WSW
Iridium 2 3.8 11:07:02 10° NNW 11:10:42 51° W 11:12:08 31° SSW
STARLINK-1208 3.5 11:07:54 10° NW 11:12:01 66° SW 11:16:06 10° SE
IRIDIUM 114 4.3 11:09:34 19° SSW 11:13:16 69° W 11:18:29 10° N
COBE Rocket 3.9 11:09:23 15° S 11:13:18 61° W 11:18:18 10° NNW
SL-16 R/B 2.5 11:09:39 15° S 11:14:15 65° ESE 11:19:53 10° NNE
Cosmos 1825 4.1 11:12:29 10° SSE 11:15:42 27° E 11:18:56 10° NNE
STARLINK-1271 3.6 11:12:53 10° NW 11:16:58 58° SW 11:21:01 10° SSE
STARLINK-42 3.6 11:18:29 28° W 11:19:40 42° NW 11:22:45 10° NNE
SL-24 DEB 4.1 11:15:04 10° N 11:19:41 84° W 11:23:52 12° S
Cosmos 2154 Rocket 4.2 11:15:57 19° SSW 11:20:19 53° W 11:26:25 10° N
NOSS 2-1 (E) 3.1 11:18:59 24° SSW 11:20:54 68° ESE 11:24:17 10° NE
STARLINK-1154 3.7 11:17:53 10° NW 11:21:55 51° SW 11:25:55 10° SSE
STARLINK-1311 3.0 11:21:03 33° WSW 11:22:06 54° NW 11:25:02 10° NE
IRIDIUM 103 4.5 11:18:43 18° SSW 11:22:27 55° W 11:27:34 10° N
STARLINK-1316 2.9 11:21:40 32° WSW 11:22:53 65° NW 11:25:59 10° NE
Cosmos 836 Rocket 4.5 11:19:47 18° SSW 11:23:40 76° WNW 11:28:58 10° NNE
STARLINK-1257 3.0 11:22:32 31° WSW 11:23:48 63° NW 11:26:54 10° NE
STARLINK-1256 3.0 11:23:24 30° WSW 11:24:42 61° NW 11:27:47 10° NE
STARLINK-1301 3.3 11:23:05 27° WSW 11:24:43 60° NW 11:28:08 10° NE
STARLINK-48 3.9 11:22:30 21° SSW 11:24:49 54° SE 11:28:37 10° NE
STARLINK-1213 3.0 11:24:16 29° WSW 11:25:36 60° NW 11:28:42 10° NE
STARLINK-1263 3.1 11:25:08 28° WSW 11:26:30 58° NW 11:29:35 10° NE
STARLINK-1197 3.8 11:22:54 10° WNW 11:26:52 46° SW 11:30:49 10° SSE
STARLINK-1259 3.1 11:26:01 27° WSW 11:27:27 56° NW 11:30:30 10° NE
STARLINK-1307 3.3 11:26:05 25° WSW 11:27:52 64° NW 11:31:19 10° NE
STARLINK-1265 3.1 11:26:29 27° WSW 11:27:56 56° NW 11:31:00 10° NE
STARLINK-1285 3.2 11:26:52 27° WSW 11:28:18 55° NW 11:31:22 10° NE
Cosmos 2221 2.6 11:24:29 10° NNW 11:28:45 56° W 11:33:00 10° S
STARLINK-1290 3.2 11:27:15 25° WSW 11:29:01 62° NW 11:32:22 10° NE
STARLINK-1268 3.2 11:28:12 26° WSW 11:29:40 53° NW 11:32:43 10° NE
STARLINK-1296 3.2 11:28:38 25° WSW 11:30:08 52° NW 11:33:11 10° NE
STARLINK-1260 3.3 11:29:30 24° WSW 11:31:02 51° NW 11:34:05 10° NE
STARLINK-1297 3.3 11:29:43 23° WSW 11:31:35 57° NW 11:34:54 10° NE
Cosmos 372 Rocket 4.1 11:26:47 10° NNW 11:31:44 51° WSW 11:36:43 10° S
STARLINK-1198 4.0 11:27:58 10° WNW 11:31:52 40° SW 11:35:45 10° SSE
STARLINK-1318 3.3 11:30:22 24° WSW 11:31:57 49° NW 11:34:59 10° NE
Cosmos 2151 3.8 11:28:26 10° S 11:32:32 51° E 11:36:41 10° NNE
STARLINK-1275 3.4 11:31:11 23° WSW 11:32:48 48° NW 11:35:51 10° NE
Cosmos 962 Rocket 4.4 11:27:21 10° SSW 11:33:24 69° W 11:39:32 10° N
STARLINK-62 2.9 11:31:48 24° SW 11:33:34 77° NW 11:36:46 10° NE
STARLINK-1309 3.4 11:32:05 22° WSW 11:33:44 47° NW 11:36:45 10° NNE
PSLV R/B 3.8 11:30:04 10° NNE 11:34:16 67° ESE 11:38:24 10° S
STARLINK-1282 3.4 11:32:56 22° WSW 11:34:37 46° NW 11:37:38 10° NNE
STARLINK-34 2.9 11:33:38 23° SW 11:35:29 73° NW 11:38:39 10° NE
Cosmos 2058 3.3 11:32:41 17° SSW 11:35:37 46° W 11:39:40 10° N
STARLINK-1313 3.8 11:33:58 20° W 11:35:42 38° NW 11:38:38 10° NNE
STARLINK-1029 2.9 11:34:22 21° SW 11:36:19 74° SE 11:39:28 10° NE
STARLINK-1279 3.8 11:34:54 19° W 11:36:40 37° NW 11:39:36 10° NNE
STARLINK-1199 4.1 11:32:59 10° WNW 11:36:47 36° SW 11:40:35 10° SSE
STARLINK-1298 3.6 11:35:33 20° WSW 11:37:20 42° NW 11:40:19 10° NNE
STARLINK-1293 3.6 11:36:26 19° WSW 11:38:16 41° NW 11:41:15 10° NNE
Meteor 1-28 Rocket 4.3 11:37:14 17° SW 11:39:06 25° W 11:42:16 10° NW
STARLINK-1255 3.7 11:38:07 18° WSW 11:40:01 40° NW 11:42:59 10° NNE
STARLINK-1210 4.3 11:38:02 10° WNW 11:41:44 32° SW 11:45:26 10° SSE
Lacrosse 4 Rocket 2.2 11:39:28 10° NW 11:43:09 29° WSW 11:46:43 10° SSW
CZ-4C R/B 4.5 11:45:17 10° NW 11:46:03 10° NNW 11:46:50 10° NNW
STARLINK-1219 4.4 11:43:06 10° WNW 11:46:41 29° SW 11:50:16 10° S
CZ-4B R/B 2.3 11:43:51 10° SSE 11:46:46 46° ENE 11:49:43 10° N
BREEZE-M DEB (TANK) 3.8 11:41:40 12° SW 11:47:04 42° SSE 11:49:59 10° ENE
Cosmos 1766 Rocket 4.3 11:44:50 10° S 11:49:06 54° E 11:53:21 10° NNE
STARLINK-1317 4.3 11:46:29 13° WSW 11:49:11 33° NW 11:52:23 10° NNE
PAYLOAD A 3.9 11:44:55 10° NNE 11:49:37 84° ESE 11:54:24 10° SSW
Cosmos 1892 3.6 11:47:04 14° SW 11:49:49 30° W 11:53:13 10° NNW
Cosmos 2360 Rocket 2.9 11:44:36 10° S 11:50:01 54° ESE 11:55:29 10° NNE
Skynet4D Del rocket 4.2 11:45:40 13° WSW 11:50:22 40° S 11:55:21 10° ESE
Uosat 12 SS-18 rocket 4.4 11:47:06 10° NW 11:51:16 45° WSW 11:55:58 10° S
SAR-Lupe-4 3.5 11:49:07 10° S 11:52:41 79° WSW 11:56:17 10° NNW
STARLINK-64 3.3 11:50:53 12° SW 11:54:05 79° SE 11:57:41 10° NE
STARLINK-1244 4.5 11:50:05 10° NW 11:54:09 54° NE 11:58:12 10° ESE
STARLINK-1291 4.3 11:51:45 12° W 11:54:25 30° NW 11:57:22 10° NNE
Cosmos 2084 Rocket 4.0 11:50:55 10° NNW 11:55:24 69° ENE 11:59:52 10° SE
H-2A R/B 3.1 11:51:48 10° SSW 11:55:26 27° W 11:59:09 10° NW
